Notices

What's New in latest Release from April 7th, 2021:

- Updated Glossary, including Speed of Maximum Gust, and Total Hourly Precipitation

- Updated national and regional climate services offices contacts and prices information

- Addition of station inventory lists for 1981-2010, 1971-2000, and 1961-1990 Normals.

If you haven't already, please take our survey and provide feedback about our website: https://eccc.sondage-survey.ca/f/LanguageSelection.aspx?s=442ca660-fcf1-47c0-95a9-59707d6fd709

Hourly Data Report for April 11, 2019

MIRAMICHI RCS
NEW BRUNSWICK
Current Station Operator: ECCC - MSC

47°00'34.000" N
65°27'54.000" W
33.00 m
8100989
71744
ACQ

Download Data

Hourly Data (April 2019)
Hourly Data Report for April 11, 2019
TIME
LST
Temp Definition
°C
Dew Point Definition
°C
Rel Hum Definition
%
Precip. Amount Definition
mm

Wind Dir Definition
10's deg

Wind Spd Definition
km/h
Visibility Definition
km
Stn Press Definition
kPa
Hmdx Definition


Wind Chill Definition


Weather Definition


00:00 0.9 -3.4 73 0.0 28 6   100.28     LegendNANA
01:00 2.3 -4.1 63 0.0 34 6   100.32     LegendNANA
02:00 2.4 -4.2 62 0.0 32 6   100.39     LegendNANA
03:00 2.2 -4.1 63 0.0 32 6   100.47     LegendNANA
04:00 1.7 -3.8 67 0.0 30 7   100.55     LegendNANA
05:00 1.6 -3.6 68 0.0 30 6   100.63     LegendNANA
06:00 2.1 -3.6 66 0.0 32 5   100.73     LegendNANA
07:00 2.3 -4.0 63 0.0 35 7   100.84     LegendNANA
08:00 4.0 -4.7 53 0.0 35 10   100.92     LegendNANA
09:00 5.0 -5.1 48 0.0 34 10   100.97     LegendNANA
10:00 6.2 -5.1 44 0.0 35 13   101.02     LegendNANA
11:00 6.7 -5.2 42 0.0 31 12   101.04     LegendNANA
12:00 7.4 -6.3 37 0.0 32 13   101.06     LegendNANA
13:00 8.5 -6.3 35 0.0 33 10   101.08     LegendNANA
14:00 9.5 -6.2 33 0.0 1 9   101.10     LegendNANA
15:00 10.5 -5.6 32 0.0 29 6   101.13     LegendNANA
16:00 10.8 -6.0 30 0.0 32 11   101.17     LegendNANA
17:00 11.2 -5.7 30 0.0 34 9   101.23     LegendNANA
18:00 10.3 -5.7 32 0.0 35 11   101.33     LegendNANA
19:00 8.8 -6.0 35 0.0 33 9   101.46     LegendNANA
20:00 7.1 -6.5 37 0.0 35 6   101.57     LegendNANA
21:00 2.5 -4.9 58 0.0 24 4   101.63     LegendNANA
22:00 0.5 -4.6 69 0.0 2 3   101.69     LegendNANA
23:00 -0.4 -5.3 70 0.0 33 3   101.72   -1 LegendNANA

Notes on Data Quality.

Legend

  • E = Estimated
  • M = Missing
  • NA = Not Available*
  • [empty] = Indicates an unobserved value
Date modified: